TITAN 3C TRANSTAGE DEB, 38703

Orbit data source: Space-Track

TITAN 3C TRANSTAGE DEB, 38703 is space debris in GEO originally from a launch on Thu, 26 Sep 1968 UTC launched from the Air Force Eastern Test Range (AFETR). Debris objects in space refer to the collection of defunct objects orbiting the Earth. Examples of debris include non-operational satellites, rocket bodies, and fragments generated from explosions, collisions, or faulty payload assembly.

Not visible in the next 10 days
Identifier
38703, 1968-081AD
Orbit
GEO
Country
Flag of USUS
Related business
Manufacturer
Unknown
Mission
Spacecraft
Bus & Motor
Unknown
Mass
Unknown
Launch date (UTC)
1968-09-26 (57 years ago)
Launch vehicle
Unknown
Launch site
Air Force Eastern Test Range (AFETR)
Object type
Payload
Rocket body
Debris
Shape & HBR
Unknown shape, 1.1 m
Radar Cross Section
Small (<0.1 m²)

Expand to show TLE details & history
Last TLE update: 22 hours ago

TLE from 22 hours ago
0 TITAN 3C TRANSTAGE DEB
1 38703U 68081AD  26067.62519629 -.00000188  00000-0  00000-0 0  9993
2 38703   2.6277  79.9687 0238952  68.5230 294.4232  1.05421554 46403
Epoch: 2026-03-08T15:00Z
TLE epoch observation values (Epoch: 2026-03-08T15:00:16.959Z)
Latitude
-0°
Longitude
48.99723°
Altitude
34,019.218 km
Speed
3.156 km/s
True Right ascension
05h 21m 35s
True Declination
0° 00' 00"
Sunlit
Object was in daylight at epoch
Visualization orbit readout
Latitude
Unknown
Longitude
Unknown
Altitude
Unknown
Speed
Unknown
Apparent Right ascension
Unknown
Apparent Declination
Unknown
Sunlit
N/A
Visualization observer readout
Local Sidereal Time
16:43:10
Azimuth
Unknown
Elevation
Unknown
Doppler factor
Unknown
Orbital elements
Apogee altitude
35,377.599 km
Perigee altitude
33,428.647 km
Semi-major axis
40,781.26 km
Eccentricity
0.0239
Inclination
2.6277°
RAAN
79.9687°
Arg. of periapsis
68.523°
True anomaly
291.89969°
Mean anomaly
294.4232°
Eccentric anomaly
293.16448°
Mean motion
0.26354 °/min
Orbital period
1,366 mins
BSTAR
0
Loading maneuver chart data...
Computing Atmospheric mass density...

Documentation

Showing up to 5 results
|